SQ6XL-13 Weather Reports


time (UTC)temp
C
wind
direction
speed
KPH
gust
KPH
rain 1hr
cm
rain 24hr
cm
rain mn
cm
humidity
%
barometer
mb
20260508014602 7 0.0 0.0 0.00 0.00 0.00 99 1016.6
20260508013657 7 0.0 0.0 0.03 0.00 0.00 99 1016.5
20260508012757 7 0.0 0.0 0.05 0.00 0.00 99 1016.5
20260508011757 7 0.0 0.0 0.00 0.00 0.00 99 1016.6
20260508010922 8 0.0 0.0 0.00 0.00 0.00 99 1016.6
20260508010037 8 0.0 0.0 0.00 0.00 0.00 99 1016.7
20260508005157 8 0.0 0.0 0.00 0.00 0.00 99 1016.6
20260508004242 8 0.0 0.0 0.00 0.00 0.00 99 1016.4
20260508003337 8 0.0 0.0 0.00 0.00 0.00 99 1016.5
20260508002423 8 0.0 0.0 0.00 0.00 0.00 99 1016.6
20260508001447 8 0.0 0.0 0.05 0.00 0.00 99 1016.5
20260508000557 8 0.0 0.0 0.03 0.00 0.00 99 1016.7
20260507235557 8 0.0 0.0 0.00 0.00 0.00 99 1016.7
20260507234747 8 0.0 0.0 0.00 0.00 0.00 99 1016.6
20260507233907 8 0.0 0.0 0.00 0.00 0.00 99 1016.6
20260507232952 8 0.0 0.0 0.00 0.00 0.00 99 1016.7
20260507232137 8 0.0 0.0 0.00 0.00 0.00 99 1016.7
20260507231157 8 0.0 0.0 0.00 0.00 0.00 99 1016.8
20260507230337 8 0.0 0.0 0.00 0.00 0.00 99 1016.7
20260507225350 8 0.0 0.0 0.00 0.00 0.00 99 1016.7
20260507224422 8 0.0 0.0 0.00 0.00 0.00 99 1016.5
20260507223507 8 0.0 0.0 0.00 0.00 0.00 99 1016.6
20260507222532 8 0.0 0.0 0.00 0.00 0.00 99 1016.7
20260507221552 8 0.0 0.0 0.00 0.00 0.00 99 1016.5
20260507220632 8 0.0 0.0 0.00 0.00 0.00 99 1016.6
20260507215702 8 0.0 0.0 0.00 0.00 0.00 99 1016.5
20260507214747 8 0.0 0.0 0.00 0.00 0.00 99 1016.5
20260507213827 8 0.0 0.0 0.00 0.00 0.00 99 1016.4
20260507212922 8 0.0 0.0 0.00 0.00 0.00 99 1016.5
20260507212118 8 0.0 0.0 0.00 0.00 0.00 99 1016.6
20260507211222 8 0.0 0.0 0.00 0.00 0.00 99 1016.6
20260507210326 8 0.0 0.0 0.00 0.00 0.00 99 1016.5
20260507205326 8 0.0 0.0 0.00 0.00 0.00 99 1016.2
20260507204517 8 0.0 0.0 0.00 0.00 0.00 99 1016.1
20260507203557 8 0.0 0.0 0.00 0.00 0.00 99 1016.2
20260507202626 8 0.0 0.0 0.00 0.00 0.00 99 1016.2
20260507201737 8 0.0 0.0 0.00 0.00 0.00 99 1016.0
20260507200922 8 0.0 0.0 0.00 0.00 0.00 99 1016.0
20260507195957 8 0.0 0.0 0.00 0.00 0.00 99 1016.1
20260507195047 8 0.0 0.0 0.00 0.00 0.00 99 1015.9
20260507194247 8 0.0 0.0 0.00 0.00 0.00 99 1016.0
20260507193332 8 0.0 0.0 0.00 0.00 0.00 99 1015.9
20260507192422 8 0.0 0.0 0.00 0.00 0.00 99 1015.8
20260507191522 8 0.0 0.0 0.00 0.00 0.00 99 1015.7
20260507190717 8 0.0 0.0 0.00 0.00 0.00 99 1015.6
20260507185822 8 0.0 0.0 0.00 0.00 0.00 99 1015.7
20260507185012 8 0.0 0.0 0.00 0.00 0.00 99 1015.5
20260507184028 8 0.0 0.0 0.00 0.00 0.00 99 1015.3
20260507183107 8 0.0 0.0 0.00 0.00 0.00 99 1015.2
20260507182142 8 0.0 0.0 0.00 0.00 0.00 99 1015.2
20260507181252 8 0.0 0.0 0.00 0.00 0.00 99 1014.9
20260507180452 8 0.0 0.0 0.00 0.00 0.00 99 1014.8
20260507175520 9 0.0 0.0 0.00 0.00 0.00 99 1014.7
20260507174707 9 0.0 0.0 0.00 0.00 0.00 99 1014.6
20260507173717 9 0.0 0.0 0.00 0.00 0.00 99 1014.6
20260507172852 9 0.0 0.0 0.00 0.00 0.00 99 1014.6
20260507171935 9 0.0 0.0 0.00 0.00 0.00 99 1014.4
20260507171035 9 0.0 0.0 0.00 0.00 0.00 99 1014.3
20260507170107 9 0.0 0.0 0.00 0.00 0.00 99 1014.1
20260507165252 9 0.0 0.0 0.00 0.00 0.00 98 1014.0
20260507164422 10 0.0 0.0 0.00 0.00 0.00 98 1013.7
20260507163607 10 0.0 0.0 0.00 0.00 0.00 98 1013.8
20260507162738 10 0.0 0.0 0.00 0.00 0.00 98 1013.6
20260507161817 10 0.0 0.0 0.00 0.00 0.00 98 1013.5
20260507161007 10 0.0 0.0 0.00 0.00 0.00 97 1013.4
20260507160012 10 0.0 0.0 0.00 0.00 0.00 97 1013.2
20260507155122 10 0.0 0.0 0.00 0.00 0.00 97 1013.3
20260507154242 10 0.0 0.0 0.00 0.00 0.00 97 1013.2
20260507153247 10 0.0 0.0 0.00 0.00 0.00 96 1013.1
20260507152252 10 0.0 0.0 0.00 0.00 0.00 96 1013.1
20260507151426 11 0.0 0.0 0.00 0.00 0.00 96 1013.1
20260507150457 11 0.0 0.0 0.00 0.00 0.00 95 1013.1
20260507145457 11 0.0 0.0 0.00 0.00 0.00 95 1013.0
20260507144552 11 0.0 0.0 0.00 0.00 0.00 95 1012.9
20260507143607 11 0.0 0.0 0.00 0.00 0.00 96 1012.8
20260507142702 11 0.0 0.0 0.00 0.00 0.00 96 1013.0
20260507141828 11 0.0 0.0 0.00 0.00 0.00 95 1012.9
20260507140907 11 0.0 0.0 0.00 0.00 0.00 95 1013.0
20260507135937 11 0.0 0.0 0.00 0.00 0.00 94 1013.0
20260507134952 12 0.0 0.0 0.00 0.00 0.00 93 1012.7
20260507134132 12 0.0 0.0 0.00 0.00 0.00 93 1012.7
20260507133307 12 0.0 0.0 0.00 0.00 0.00 93 1012.9
20260507132447 12 0.0 0.0 0.00 0.00 0.00 93 1012.8
20260507131632 12 0.0 0.0 0.00 0.00 0.00 92 1012.7
20260507130812 13 0.0 0.0 0.00 0.00 0.00 91 1012.7
20260507125932 14 0.0 0.0 0.00 0.00 0.00 88 1012.5
20260507125122 15 0.0 0.0 0.00 0.00 0.00 88 1012.5
20260507124217 15 0.0 0.0 0.00 0.00 0.00 90 1012.4
20260507123226 15 0.0 0.0 0.00 0.00 0.00 89 1012.3
20260507122322 15 0.0 0.0 0.00 0.00 0.00 90 1012.3
20260507121422 15 0.0 0.0 0.00 0.00 0.00 90 1012.2
20260507120602 15 0.0 0.0 0.00 0.00 0.00 90 1012.2
20260507115702 15 0.0 0.0 0.00 0.00 0.00 92 1012.3
20260507114802 15 0.0 0.0 0.00 0.00 0.00 90 1012.1
20260507113942 15 0.0 0.0 0.00 0.00 0.00 90 1012.1
20260507113138 16 0.0 0.0 0.00 0.00 0.00 88 1012.0
20260507112247 16 0.0 0.0 0.00 0.00 0.00 89 1011.9
20260507111317 16 0.0 0.0 0.00 0.00 0.00 95 1011.9
20260507110457 16 0.0 0.0 0.00 0.00 0.00 98 1011.9
20260507105552 16 0.0 0.0 0.00 0.00 0.00 98 1011.7
20260507104737 16 0.0 0.0 0.00 0.00 0.00 97 1011.9
20260507103857 16 0.0 0.0 0.00 0.00 0.00 97 1011.7
20260507103027 17 0.0 0.0 0.00 0.00 0.00 98 1011.7
20260507102152 17 0.0 0.0 0.00 0.00 0.00 99 1011.6
20260507101242 16 0.0 0.0 0.00 0.00 0.00 99 1011.7
20260507100308 15 0.0 0.0 0.00 0.00 0.00 99 1011.7
20260507095407 15 0.0 0.0 0.00 0.00 0.00 99 1011.6
20260507094452 15 0.0 0.0 0.00 0.00 0.00 99 1011.5
20260507093502 15 0.0 0.0 0.00 0.00 0.00 99 1011.3
20260507092628 15 0.0 0.0 0.00 0.00 0.00 99 1011.3
20260507091632 15 0.0 0.0 0.00 0.00 0.00 99 1011.3
20260507090717 15 0.0 0.0 0.00 0.00 0.00 99 1011.2
20260507085812 14 0.0 0.0 0.00 0.00 0.00 99 1011.1
20260507084948 14 0.0 0.0 0.00 0.00 0.00 99 1011.0
20260507084006 14 0.0 0.0 0.00 0.00 0.00 99 1010.9
20260507083027 14 0.0 0.0 0.00 0.00 0.00 99 1010.7
20260507082032 14 0.0 0.0 0.00 0.00 0.00 99 1010.7
20260507081107 14 0.0 0.0 0.00 0.00 0.00 99 1010.6
20260507080157 14 0.0 0.0 0.00 0.00 0.00 99 1010.5
20260507075322 13 0.0 0.0 0.00 0.00 0.00 99 1010.4
20260507074326 13 0.0 0.0 0.00 0.00 0.00 99 1010.3
20260507073452 13 0.0 0.0 0.00 0.00 0.00 99 1010.5
20260507072636 13 0.0 0.0 0.00 0.00 0.00 99 1010.4
20260507071702 13 0.0 0.0 0.00 0.00 0.00 99 1010.1
20260507070742 13 0.0 0.0 0.00 0.00 0.00 99 1010.1
20260507065837 12 0.0 0.0 0.00 0.00 0.00 99 1010.1
20260507064901 12 0.0 0.0 0.00 0.00 0.00 99 1010.2
20260507063916 12 0.0 0.0 0.00 0.00 0.00 99 1009.9
20260507063052 12 0.0 0.0 0.00 0.00 0.00 99 1009.9
20260507062212 12 0.0 0.0 0.00 0.00 0.00 99 1009.8
20260507061217 12 0.0 0.0 0.00 0.00 0.00 99 1010.0
20260507060315 12 0.0 0.0 0.00 0.00 0.00 99 1009.9
20260507055352 12 0.0 0.0 0.00 0.00 0.00 99 1009.7
20260507054436 11 0.0 0.0 0.00 0.00 0.00 99 1009.4
20260507053601 11 0.0 0.0 0.00 0.00 0.00 99 1009.4
20260507052711 11 0.0 0.0 0.00 0.00 0.00 99 1009.4
20260507051742 11 0.0 0.0 0.00 0.00 0.00 99 1009.3
20260507050757 11 0.0 0.0 0.00 0.00 0.00 99 1009.1
20260507045932 11 0.0 0.0 0.00 0.00 0.00 99 1008.9
20260507045036 11 0.0 0.0 0.00 0.00 0.00 99 1008.8
20260507044132 11 0.0 0.0 0.00 0.00 0.00 99 1008.8
20260507043242 11 0.0 0.0 0.00 0.00 0.00 99 1008.7
20260507042412 11 0.0 0.0 0.00 0.00 0.00 99 1008.7
20260507041607 11 0.0 0.0 0.00 0.00 0.00 99 1008.7
20260507040616 11 0.0 0.0 0.00 0.00 0.00 99 1008.6
20260507035647 11 0.0 0.0 0.00 0.00 0.00 99 1008.6
20260507034712 11 0.0 0.0 0.00 0.00 0.00 99 1008.5
20260507033856 11 0.0 0.0 0.03 0.00 0.00 99 1008.5
20260507032912 11 0.0 0.0 0.05 0.00 0.00 99 1008.6
20260507031927 11 0.0 0.0 0.00 0.00 0.00 99 1008.5
20260507031000 11 0.0 0.0 0.00 0.00 0.00 99 1008.2
20260507030116 11 0.0 0.0 0.00 0.00 0.00 99 1008.2
20260507025241 11 0.0 0.0 0.00 0.00 0.00 99 1008.1
20260507024407 11 0.0 0.0 0.00 0.00 0.00 99 1008.0
20260507023406 11 0.0 0.0 0.05 0.00 0.00 99 1007.9
20260507022432 11 0.0 0.0 0.08 0.00 0.00 99 1007.9
20260507021547 11 0.0 0.0 0.05 0.00 0.00 99 1008.0
20260507020717 11 0.0 0.0 0.10 0.00 0.00 99 1008.1
20260507015832 11 0.0 0.0 0.10 0.00 0.00 99 1007.8
20260507014852 11 0.0 0.0 0.05 0.00 0.00 99 1007.9